Wetterdaten: Samstag, 27.09.2014
Datum Zeit Temp. A. Feuchte A. Luftdruck Regen Wind Richtung Richtung Sonnenschein ET UV Solar Taupunkt Windchill Windben Empfang
27.09.2014 00:00 11,5 C 82 % 1024,2 hPa 0,0 l/m 0,0 km/h (0 Bft) N-NW 331 0 min 0,000 mm 0,0 UV-I 0 W/m 8,5 C 11,5 C 0,0 km/h (0 Bft) 0,00 %
27.09.2014 00:15 11,5 C 83 % 1024,3 hPa 0,0 l/m 0,0 km/h (0 Bft) O-SO 106 0 min 0,000 mm 0,0 UV-I 0 W/m 8,7 C 11,5 C 0,0 km/h (0 Bft) 0,00 %
27.09.2014 00:30 11,5 C 83 % 1024,2 hPa 0,0 l/m 0,4 km/h (0 Bft) O-NO 61 0 min 0,000 mm 0,0 UV-I 0 W/m 8,7 C 11,5 C 4,0 km/h (1 Bft) 0,00 %
27.09.2014 00:45 11,6 C 83 % 1024,1 hPa 0,0 l/m 0,0 km/h (0 Bft) SW 216 0 min 0,000 mm 0,0 UV-I 0 W/m 8,8 C 11,6 C 0,0 km/h (0 Bft) 0,00 %
27.09.2014 01:00 11,6 C 83 % 1024,6 hPa 0,0 l/m 0,4 km/h (0 Bft) W-SW 252 0 min 0,000 mm 0,0 UV-I 0 W/m 8,8 C 11,6 C 4,0 km/h (1 Bft) 0,00 %
27.09.2014 01:15 11,7 C 82 % 1024,4 hPa 0,0 l/m 0,7 km/h (0 Bft) NW 316 0 min 0,000 mm 0,0 UV-I 0 W/m 8,7 C 11,7 C 4,0 km/h (1 Bft) 0,00 %
27.09.2014 01:30 11,8 C 82 % 1024,5 hPa 0,0 l/m 0,7 km/h (0 Bft) W-SW 256 0 min 0,000 mm 0,0 UV-I 0 W/m 8,8 C 11,8 C 4,0 km/h (1 Bft) 0,00 %
27.09.2014 01:45 11,8 C 82 % 1024,6 hPa 0,0 l/m 0,4 km/h (0 Bft) S 188 0 min 0,000 mm 0,0 UV-I 0 W/m 8,8 C 11,8 C 4,0 km/h (1 Bft) 0,00 %
27.09.2014 02:00 12,0 C 81 % 1024,5 hPa 0,0 l/m 0,4 km/h (0 Bft) S 181 0 min 0,000 mm 0,0 UV-I 0 W/m 8,8 C 12,0 C 4,0 km/h (1 Bft) 0,00 %
27.09.2014 02:15 12,2 C 81 % 1024,6 hPa 0,0 l/m 0,0 km/h (0 Bft) N-NW 342 0 min 0,000 mm 0,0 UV-I 0 W/m 9,0 C 12,2 C 0,0 km/h (0 Bft) 0,00 %
27.09.2014 02:30 12,2 C 80 % 1024,8 hPa 0,0 l/m 0,4 km/h (0 Bft) W-SW 251 0 min 0,000 mm 0,0 UV-I 0 W/m 8,9 C 12,2 C 4,0 km/h (1 Bft) 0,00 %
27.09.2014 02:45 12,3 C 80 % 1024,7 hPa 0,0 l/m 1,8 km/h (1 Bft) NW 322 0 min 0,000 mm 0,0 UV-I 0 W/m 8,9 C 12,3 C 4,0 km/h (1 Bft) 0,00 %
27.09.2014 03:00 12,3 C 81 % 1025,0 hPa 0,0 l/m 0,7 km/h (0 Bft) S 185 0 min 0,000 mm 0,0 UV-I 0 W/m 9,1 C 12,3 C 4,0 km/h (1 Bft) 0,00 %
27.09.2014 03:15 12,1 C 83 % 1025,0 hPa 0,0 l/m 0,0 km/h (0 Bft) W-SW 247 0 min 0,000 mm 0,0 UV-I 0 W/m 9,3 C 12,1 C 0,0 km/h (0 Bft) 0,00 %
27.09.2014 03:30 11,8 C 84 % 1025,2 hPa 0,0 l/m 0,7 km/h (0 Bft) S-SW 210 0 min 0,000 mm 0,0 UV-I 0 W/m 9,2 C 11,8 C 4,0 km/h (1 Bft) 0,00 %
27.09.2014 03:45 11,6 C 86 % 1025,1 hPa 0,3 l/m 0,7 km/h (0 Bft) SW 235 0 min 0,000 mm 0,0 UV-I 0 W/m 9,3 C 11,6 C 4,0 km/h (1 Bft) 0,00 %
27.09.2014 04:00 11,6 C 87 % 1025,2 hPa 0,0 l/m 0,4 km/h (0 Bft) W-SW 256 0 min 0,000 mm 0,0 UV-I 0 W/m 9,5 C 11,6 C 4,0 km/h (1 Bft) 0,00 %
27.09.2014 04:15 11,6 C 87 % 1025,5 hPa 0,0 l/m 0,0 km/h (0 Bft) S 180 0 min 0,000 mm 0,0 UV-I 0 W/m 9,5 C 11,6 C 0,0 km/h (0 Bft) 0,00 %
27.09.2014 04:30 11,6 C 87 % 1025,8 hPa 0,0 l/m 0,0 km/h (0 Bft) S 179 0 min 0,000 mm 0,0 UV-I 0 W/m 9,5 C 11,6 C 0,0 km/h (0 Bft) 0,00 %
27.09.2014 04:45 11,7 C 87 % 1025,6 hPa 0,0 l/m 0,0 km/h (0 Bft) W-SW 245 0 min 0,000 mm 0,0 UV-I 0 W/m 9,6 C 11,7 C 0,0 km/h (0 Bft) 0,00 %
27.09.2014 05:00 11,7 C 87 % 1025,6 hPa 0,0 l/m 1,8 km/h (1 Bft) N-NW 327 0 min 0,000 mm 0,0 UV-I 0 W/m 9,6 C 11,7 C 4,0 km/h (1 Bft) 0,00 %
27.09.2014 05:15 11,8 C 87 % 1025,7 hPa 0,0 l/m 0,0 km/h (0 Bft) W 271 0 min 0,000 mm 0,0 UV-I 0 W/m 9,7 C 11,8 C 0,0 km/h (0 Bft) 0,00 %
27.09.2014 05:30 11,8 C 87 % 1025,6 hPa 0,0 l/m 0,0 km/h (0 Bft) SW 228 0 min 0,000 mm 0,0 UV-I 0 W/m 9,7 C 11,8 C 0,0 km/h (0 Bft) 0,00 %
27.09.2014 05:45 11,7 C 88 % 1025,6 hPa 0,3 l/m 0,7 km/h (0 Bft) W-SW 251 0 min 0,000 mm 0,0 UV-I 0 W/m 9,8 C 11,7 C 4,0 km/h (1 Bft) 0,00 %
27.09.2014 06:00 11,7 C 88 % 1025,9 hPa 0,0 l/m 1,8 km/h (1 Bft) SW 218 0 min 0,000 mm 0,0 UV-I 0 W/m 9,8 C 11,7 C 4,0 km/h (1 Bft) 0,00 %
27.09.2014 06:15 11,8 C 87 % 1025,9 hPa 0,0 l/m 0,7 km/h (0 Bft) W-SW 256 0 min 0,000 mm 0,0 UV-I 0 W/m 9,7 C 11,8 C 4,0 km/h (1 Bft) 0,00 %
27.09.2014 06:30 11,8 C 87 % 1025,9 hPa 0,0 l/m 0,0 km/h (0 Bft) O-SO 122 0 min 0,000 mm 0,0 UV-I 0 W/m 9,7 C 11,8 C 0,0 km/h (0 Bft) 0,00 %
27.09.2014 06:45 11,8 C 87 % 1026,1 hPa 0,0 l/m 0,4 km/h (0 Bft) S-SW 212 0 min 0,000 mm 0,0 UV-I 0 W/m 9,7 C 11,8 C 4,0 km/h (1 Bft) 0,00 %
27.09.2014 07:00 11,8 C 87 % 1026,2 hPa 0,0 l/m 0,0 km/h (0 Bft) N 356 0 min 0,000 mm 0,0 UV-I 0 W/m 9,7 C 11,8 C 0,0 km/h (0 Bft) 0,00 %
27.09.2014 07:15 11,8 C 87 % 1026,5 hPa 0,0 l/m 1,4 km/h (1 Bft) S-SW 210 0 min 0,000 mm 0,0 UV-I 0 W/m 9,7 C 11,8 C 4,0 km/h (1 Bft) 0,00 %
27.09.2014 07:30 11,8 C 87 % 1026,4 hPa 0,0 l/m 1,8 km/h (1 Bft) N-NW 335 0 min 0,000 mm 0,0 UV-I 1 W/m 9,7 C 11,8 C 7,9 km/h (2 Bft) 0,00 %
27.09.2014 07:45 11,7 C 87 % 1026,5 hPa 0,3 l/m 0,4 km/h (0 Bft) S-SW 203 0 min 0,000 mm 0,0 UV-I 5 W/m 9,6 C 11,7 C 4,0 km/h (1 Bft) 0,00 %
27.09.2014 08:00 11,7 C 87 % 1026,8 hPa 0,0 l/m 0,4 km/h (0 Bft) O-NO 66 0 min 0,000 mm 0,0 UV-I 27 W/m 9,6 C 11,7 C 4,0 km/h (1 Bft) 0,00 %
27.09.2014 08:15 11,8 C 87 % 1026,7 hPa 0,0 l/m 0,0 km/h (0 Bft) W-SW 251 0 min 0,000 mm 1,0 UV-I 37 W/m 9,7 C 11,8 C 0,0 km/h (0 Bft) 0,00 %
27.09.2014 08:30 11,9 C 87 % 1026,9 hPa 0,0 l/m 0,0 km/h (0 Bft) SW 230 0 min 0,000 mm 1,0 UV-I 39 W/m 9,8 C 11,9 C 0,0 km/h (0 Bft) 0,00 %
27.09.2014 08:45 12,0 C 87 % 1027,1 hPa 0,0 l/m 1,4 km/h (1 Bft) W-NW 302 0 min 0,000 mm 1,0 UV-I 38 W/m 9,9 C 12,0 C 4,0 km/h (1 Bft) 0,00 %
27.09.2014 09:00 12,1 C 86 % 1027,4 hPa 0,0 l/m 0,0 km/h (0 Bft) S-SW 200 0 min 0,000 mm 1,0 UV-I 37 W/m 9,8 C 12,1 C 0,0 km/h (0 Bft) 0,00 %
27.09.2014 09:15 12,2 C 86 % 1027,2 hPa 0,0 l/m 0,4 km/h (0 Bft) O-NO 69 0 min 0,000 mm 2,0 UV-I 51 W/m 9,9 C 12,2 C 4,0 km/h (1 Bft) 0,00 %
27.09.2014 09:30 12,5 C 85 % 1027,2 hPa 0,0 l/m 0,0 km/h (0 Bft) S-SO 148 0 min 0,000 mm 2,0 UV-I 76 W/m 10,0 C 12,5 C 0,0 km/h (0 Bft) 0,00 %
27.09.2014 09:45 13,1 C 85 % 1027,2 hPa 0,0 l/m 0,7 km/h (0 Bft) W-SW 256 0 min 0,000 mm 2,0 UV-I 129 W/m 10,6 C 13,1 C 4,0 km/h (1 Bft) 0,00 %
27.09.2014 10:00 13,6 C 82 % 1027,3 hPa 0,0 l/m 0,0 km/h (0 Bft) O-SO 109 0 min 0,000 mm 2,0 UV-I 161 W/m 10,6 C 13,6 C 0,0 km/h (0 Bft) 0,00 %
27.09.2014 10:15 14,1 C 82 % 1027,2 hPa 0,0 l/m 0,0 km/h (0 Bft) N 8 0 min 0,000 mm 2,0 UV-I 183 W/m 11,1 C 14,1 C 0,0 km/h (0 Bft) 0,00 %
27.09.2014 10:30 14,8 C 80 % 1026,9 hPa 0,0 l/m 0,0 km/h (0 Bft) W-SW 256 0 min 0,000 mm 3,0 UV-I 247 W/m 11,4 C 14,8 C 0,0 km/h (0 Bft) 0,00 %
27.09.2014 10:45 15,2 C 79 % 1026,9 hPa 0,0 l/m 0,0 km/h (0 Bft) SW 216 0 min 0,000 mm 2,0 UV-I 283 W/m 11,6 C 15,2 C 0,0 km/h (0 Bft) 0,00 %
27.09.2014 11:00 15,8 C 75 % 1026,5 hPa 0,0 l/m 0,0 km/h (0 Bft) W-SW 253 0 min 0,000 mm 2,0 UV-I 277 W/m 11,4 C 15,8 C 0,0 km/h (0 Bft) 0,00 %
27.09.2014 11:15 16,1 C 74 % 1027,0 hPa 0,0 l/m 0,0 km/h (0 Bft) W-SW 252 0 min 0,000 mm 2,0 UV-I 269 W/m 11,5 C 16,1 C 0,0 km/h (0 Bft) 0,00 %
27.09.2014 11:30 16,3 C 72 % 1027,4 hPa 0,0 l/m 0,4 km/h (0 Bft) W-SW 256 0 min 0,000 mm 1,0 UV-I 283 W/m 11,2 C 16,3 C 4,0 km/h (1 Bft) 0,00 %
27.09.2014 11:45 16,2 C 72 % 1027,5 hPa 0,0 l/m 0,0 km/h (0 Bft) SW 228 0 min 0,000 mm 2,0 UV-I 238 W/m 11,1 C 16,2 C 0,0 km/h (0 Bft) 0,00 %
27.09.2014 12:00 15,9 C 73 % 1027,5 hPa 0,0 l/m 0,0 km/h (0 Bft) S-SW 198 0 min 0,000 mm 4,0 UV-I 163 W/m 11,1 C 15,9 C 0,0 km/h (0 Bft) 0,00 %
27.09.2014 12:15 15,8 C 73 % 1027,6 hPa 0,0 l/m 0,0 km/h (0 Bft) W-NW 296 0 min 0,000 mm 3,0 UV-I 168 W/m 11,0 C 15,8 C 0,0 km/h (0 Bft) 0,00 %
27.09.2014 12:30 15,8 C 73 % 1027,4 hPa 0,0 l/m 0,0 km/h (0 Bft) SW 225 0 min 0,000 mm 3,0 UV-I 140 W/m 11,0 C 15,8 C 0,0 km/h (0 Bft) 0,00 %
27.09.2014 12:45 16,6 C 71 % 1026,9 hPa 0,0 l/m 0,0 km/h (0 Bft) W-SW 252 0 min 0,000 mm 3,0 UV-I 155 W/m 11,3 C 16,6 C 0,0 km/h (0 Bft) 0,00 %
27.09.2014 13:00 17,5 C 68 % 1026,7 hPa 0,0 l/m 0,0 km/h (0 Bft) S 169 15 min 0,000 mm 3,0 UV-I 381 W/m 11,5 C 17,5 C 0,0 km/h (0 Bft) 0,00 %
27.09.2014 13:15 17,5 C 68 % 1026,7 hPa 0,0 l/m 0,0 km/h (0 Bft) W-NW 299 0 min 0,000 mm 3,0 UV-I 295 W/m 11,5 C 17,5 C 0,0 km/h (0 Bft) 0,00 %
27.09.2014 13:30 17,4 C 68 % 1026,5 hPa 0,0 l/m 0,7 km/h (0 Bft) W-NW 296 0 min 0,000 mm 3,0 UV-I 309 W/m 11,4 C 17,4 C 4,0 km/h (1 Bft) 0,00 %
27.09.2014 13:45 17,7 C 69 % 1025,8 hPa 0,0 l/m 0,0 km/h (0 Bft) W-SW 256 15 min 0,000 mm 3,0 UV-I 357 W/m 11,9 C 17,7 C 0,0 km/h (0 Bft) 0,00 %
27.09.2014 14:00 17,6 C 67 % 1026,0 hPa 0,0 l/m 0,0 km/h (0 Bft) O-SO 112 0 min 0,000 mm 3,0 UV-I 335 W/m 11,4 C 17,6 C 0,0 km/h (0 Bft) 0,00 %
27.09.2014 14:15 18,1 C 65 % 1025,9 hPa 0,0 l/m 0,0 km/h (0 Bft) N 354 15 min 0,000 mm 2,0 UV-I 336 W/m 11,4 C 18,1 C 0,0 km/h (0 Bft) 0,00 %
27.09.2014 14:30 18,0 C 66 % 1026,1 hPa 0,0 l/m 0,4 km/h (0 Bft) W 279 15 min 0,000 mm 2,0 UV-I 349 W/m 11,6 C 18,0 C 4,0 km/h (1 Bft) 0,00 %
27.09.2014 14:45 18,2 C 68 % 1026,0 hPa 0,0 l/m 0,0 km/h (0 Bft) W-SW 256 0 min 0,000 mm 2,0 UV-I 312 W/m 12,2 C 18,2 C 0,0 km/h (0 Bft) 0,00 %
27.09.2014 15:00 18,2 C 65 % 1025,8 hPa 0,0 l/m 0,0 km/h (0 Bft) SO 138 0 min 0,000 mm 2,0 UV-I 296 W/m 11,5 C 18,2 C 0,0 km/h (0 Bft) 0,00 %
27.09.2014 15:15 18,1 C 66 % 1025,7 hPa 0,0 l/m 0,0 km/h (0 Bft) W-SW 256 0 min 0,000 mm 2,0 UV-I 280 W/m 11,6 C 18,1 C 0,0 km/h (0 Bft) 0,00 %
27.09.2014 15:30 17,9 C 65 % 1025,8 hPa 0,0 l/m 0,4 km/h (0 Bft) NO 54 15 min 0,000 mm 2,0 UV-I 295 W/m 11,2 C 17,9 C 4,0 km/h (1 Bft) 0,00 %
27.09.2014 15:45 17,7 C 64 % 1026,0 hPa 0,0 l/m 0,0 km/h (0 Bft) O-NO 73 15 min 0,000 mm 2,0 UV-I 280 W/m 10,8 C 17,7 C 0,0 km/h (0 Bft) 0,00 %
27.09.2014 16:00 18,1 C 64 % 1025,7 hPa 0,0 l/m 0,0 km/h (0 Bft) S-SW 207 15 min 0,000 mm 1,0 UV-I 253 W/m 11,2 C 18,1 C 0,0 km/h (0 Bft) 0,00 %
27.09.2014 16:15 18,3 C 64 % 1025,6 hPa 0,0 l/m 0,0 km/h (0 Bft) W-SW 255 15 min 0,000 mm 1,0 UV-I 232 W/m 11,4 C 18,3 C 0,0 km/h (0 Bft) 0,00 %
27.09.2014 16:30 18,0 C 64 % 1025,8 hPa 0,0 l/m 0,0 km/h (0 Bft) O-NO 58 0 min 0,000 mm 1,0 UV-I 141 W/m 11,1 C 18,0 C 0,0 km/h (0 Bft) 0,00 %
27.09.2014 16:45 18,1 C 64 % 1025,5 hPa 0,0 l/m 0,0 km/h (0 Bft) O-NO 58 15 min 0,000 mm 1,0 UV-I 216 W/m 11,2 C 18,1 C 0,0 km/h (0 Bft) 0,00 %
27.09.2014 17:00 19,1 C 60 % 1024,9 hPa 0,0 l/m 0,7 km/h (0 Bft) O-SO 107 15 min 0,000 mm 1,0 UV-I 595 W/m 11,1 C 19,1 C 4,0 km/h (1 Bft) 0,00 %
27.09.2014 17:15 19,4 C 58 % 1024,7 hPa 0,0 l/m 0,0 km/h (0 Bft) S-SW 211 15 min 0,000 mm 1,0 UV-I 541 W/m 10,9 C 19,4 C 0,0 km/h (0 Bft) 0,00 %
27.09.2014 17:30 19,5 C 57 % 1024,7 hPa 0,0 l/m 0,0 km/h (0 Bft) S-SW 212 15 min 0,000 mm 0,0 UV-I 444 W/m 10,8 C 19,5 C 0,0 km/h (0 Bft) 0,00 %
27.09.2014 17:45 19,4 C 59 % 1024,9 hPa 0,0 l/m 0,0 km/h (0 Bft) S-SW 211 15 min 0,000 mm 0,0 UV-I 358 W/m 11,2 C 19,4 C 0,0 km/h (0 Bft) 0,00 %
27.09.2014 18:00 18,9 C 61 % 1025,3 hPa 0,0 l/m 0,0 km/h (0 Bft) O-SO 116 15 min 0,000 mm 0,0 UV-I 267 W/m 11,2 C 18,9 C 0,0 km/h (0 Bft) 0,00 %
27.09.2014 18:15 17,9 C 65 % 1025,8 hPa 0,0 l/m 0,0 km/h (0 Bft) S-SO 156 15 min 0,000 mm 0,0 UV-I 203 W/m 11,2 C 17,9 C 0,0 km/h (0 Bft) 0,00 %
27.09.2014 18:30 16,9 C 70 % 1025,7 hPa 0,0 l/m 0,0 km/h (0 Bft) S 173 15 min 0,000 mm 0,0 UV-I 107 W/m 11,4 C 16,9 C 0,0 km/h (0 Bft) 0,00 %
27.09.2014 18:45 15,6 C 74 % 1025,9 hPa 0,0 l/m 0,0 km/h (0 Bft) S 174 0 min 0,000 mm 0,0 UV-I 9 W/m 11,0 C 15,6 C 0,0 km/h (0 Bft) 0,00 %
27.09.2014 19:00 14,6 C 81 % 1026,4 hPa 0,0 l/m 0,0 km/h (0 Bft) S 174 0 min 0,000 mm 0,0 UV-I 0 W/m 11,4 C 14,6 C 0,0 km/h (0 Bft) 0,00 %
27.09.2014 19:15 13,7 C 82 % 1026,4 hPa 0,0 l/m 0,0 km/h (0 Bft) S 174 0 min 0,000 mm 0,0 UV-I 0 W/m 10,7 C 13,7 C 0,0 km/h (0 Bft) 0,00 %
27.09.2014 19:30 13,1 C 84 % 1026,8 hPa 0,0 l/m 0,0 km/h (0 Bft) S 174 0 min 0,000 mm 0,0 UV-I 0 W/m 10,5 C 13,1 C 0,0 km/h (0 Bft) 0,00 %
27.09.2014 19:45 12,6 C 84 % 1027,0 hPa 0,0 l/m 0,0 km/h (0 Bft) S 174 0 min 0,000 mm 0,0 UV-I 0 W/m 10,0 C 12,6 C 0,0 km/h (0 Bft) 0,00 %
27.09.2014 20:00 12,2 C 86 % 1027,2 hPa 0,0 l/m 0,0 km/h (0 Bft) S 174 0 min 0,000 mm 0,0 UV-I 0 W/m 9,9 C 12,2 C 0,0 km/h (0 Bft) 0,00 %
27.09.2014 20:15 12,1 C 87 % 1027,3 hPa 0,0 l/m 0,0 km/h (0 Bft) S 174 0 min 0,000 mm 0,0 UV-I 0 W/m 10,0 C 12,1 C 0,0 km/h (0 Bft) 0,00 %
27.09.2014 20:30 12,1 C 87 % 1027,2 hPa 0,0 l/m 0,0 km/h (0 Bft) S 175 0 min 0,000 mm 0,0 UV-I 0 W/m 10,0 C 12,1 C 0,0 km/h (0 Bft) 0,00 %
27.09.2014 20:45 11,9 C 87 % 1027,4 hPa 0,0 l/m 0,0 km/h (0 Bft) S 175 0 min 0,000 mm 0,0 UV-I 0 W/m 9,8 C 11,9 C 0,0 km/h (0 Bft) 0,00 %
27.09.2014 21:00 11,6 C 87 % 1027,6 hPa 0,0 l/m 0,0 km/h (0 Bft) S 175 0 min 0,000 mm 0,0 UV-I 0 W/m 9,5 C 11,6 C 0,0 km/h (0 Bft) 0,00 %
27.09.2014 21:15 11,4 C 88 % 1027,5 hPa 0,0 l/m 0,0 km/h (0 Bft) S 175 0 min 0,000 mm 0,0 UV-I 0 W/m 9,5 C 11,4 C 0,0 km/h (0 Bft) 0,00 %
27.09.2014 21:30 11,2 C 88 % 1027,7 hPa 0,0 l/m 0,0 km/h (0 Bft) S 175 0 min 0,000 mm 0,0 UV-I 0 W/m 9,3 C 11,2 C 0,0 km/h (0 Bft) 0,00 %
27.09.2014 21:45 10,8 C 88 % 1028,0 hPa 0,0 l/m 0,0 km/h (0 Bft) S 175 0 min 0,000 mm 0,0 UV-I 0 W/m 8,9 C 10,8 C 0,0 km/h (0 Bft) 0,00 %
27.09.2014 22:00 10,6 C 89 % 1028,1 hPa 0,0 l/m 0,0 km/h (0 Bft) S 175 0 min 0,000 mm 0,0 UV-I 0 W/m 8,9 C 10,6 C 0,0 km/h (0 Bft) 0,00 %
27.09.2014 22:15 10,5 C 89 % 1028,3 hPa 0,0 l/m 0,0 km/h (0 Bft) S 175 0 min 0,000 mm 0,0 UV-I 0 W/m 8,8 C 10,5 C 0,0 km/h (0 Bft) 0,00 %
27.09.2014 22:30 10,3 C 89 % 1028,1 hPa 0,0 l/m 0,0 km/h (0 Bft) S 175 0 min 0,000 mm 0,0 UV-I 0 W/m 8,6 C 10,3 C 0,0 km/h (0 Bft) 0,00 %
27.09.2014 22:45 10,1 C 89 % 1028,0 hPa 0,0 l/m 0,0 km/h (0 Bft) S 175 0 min 0,000 mm 0,0 UV-I 0 W/m 8,4 C 10,1 C 0,0 km/h (0 Bft) 0,00 %
27.09.2014 23:00 9,8 C 89 % 1028,5 hPa 0,0 l/m 0,0 km/h (0 Bft) S 175 0 min 0,000 mm 0,0 UV-I 0 W/m 8,1 C 9,8 C 0,0 km/h (0 Bft) 0,00 %
27.09.2014 23:15 9,6 C 89 % 1028,2 hPa 0,0 l/m 0,0 km/h (0 Bft) S 175 0 min 0,000 mm 0,0 UV-I 0 W/m 7,9 C 9,6 C 0,0 km/h (0 Bft) 0,00 %
27.09.2014 23:30 9,6 C 89 % 1028,2 hPa 0,0 l/m 0,0 km/h (0 Bft) S 175 0 min 0,000 mm 0,0 UV-I 0 W/m 7,9 C 9,6 C 0,0 km/h (0 Bft) 0,00 %
27.09.2014 23:45 9,6 C 89 % 1028,2 hPa 0,0 l/m 0,0 km/h (0 Bft) S 175 0 min 0,000 mm 0,0 UV-I 0 W/m 7,9 C 9,6 C 0,0 km/h (0 Bft) 0,00 %
_ Min-Zeit 23:15 17:30 00:45 - 00:00 - - - - - - 23:15 23:15 00:00 00:00
Minimum _ 9,6 C 57 % 1024,1 hPa - 0,0 km/h (0 Bft) - - - - - - 7,9 C 9,6 C 0,0 km/h (0 Bft) 0,00 %
_ Max-Zeit 17:30 22:00 23:00 03:45 02:45 - - 13:00 00:00 12:00 17:00 14:45 17:30 07:30 00:00
Maximum _ 19,5 C 89 % 1028,5 hPa 0,3 l/m 1,8 km/h
NW (1 Bft)
- - 15 min 0,000 mm 4,0 UV-I 595 W/m 12,2 C 19,5 C 7,9 km/h
N-NW (2 Bft)
0,00 %
Durchschnitt _ 13,8 C 79 % 1026,3 hPa #0,9 l/m 0,2 km/h (0 Bft) N-NW - #4:00 h #0,000 mm 2,0 UV-I 222 W/m 10,1 C 13,8 C 1,3 km/h (1 Bft) 0,00 %